パンスターズ彗星

C/2015 O1 ( PanSTARRS )

English version
Home page
Updated on December 31, 2016

---------------------------------------------------------------------

・ プロフィール

発見日 2015年7月19日
発見光度 19.6等
発見者 Pan-STARRS 1 telescope (Haleakala)

・ 写真集

・ 軌道要素

Epoch 2018 Feb. 11.0 TT = JDT 2458160.5
T 2018 Feb. 19.03879 TT                                 MPCW
q   3.7294870            (2000.0)            P               Q
z  -0.0000314      Peri.   89.59826     -0.52098584     -0.50148058
 +/-0.0000027      Node   299.85556     -0.59857200     +0.79153913
e   1.0001171      Incl.  127.21084     +0.60851074     +0.34926068
From 298 observations 2015 June 15-2016 Oct. 11, mean residual 0".5.

・ 星図

・ 光度変化

        m1 = 4.8 + 5 logΔ + 10.0 log r

---------------------------------------------------------------------

軌道要素はM.P.E.C. 2016-V116に掲載されたものです。
星図はステラナビゲータ Ver.8 (アストロアーツ) で作成したものです。
光度グラフはComet for Windowsで作成したものです。

---------------------------------------------------------------------

Copyright(C) Seiichi Yoshida (comet@aerith.net). All rights reserved.